Retour au catalogue

SL-8 DEB

ActifLEO
NORAD 21936·DEBRIS·🇷🇺 Russia

Lancé Feb 12, 1991 depuis Plesetsk Cosmodrome

Loading…

Prochains Passages (prochaines 24 heures)

TLE

FraisSource: Space-Track

Époque: Sep 14, 2026, 10:26 UTC

1 21936U 91009CD  26257.43497756 -.00000012  00000-0  46575-5 0  9993
2 21936  74.0641 314.0271 0261650  74.3866 302.0451 12.01231349519474

Suivez SL-8 DEB en temps réel avec AllMySat

Download on the App Store